This demonstration page uses our WeatherBlox Daily Observations layout. Learn more.

Left ArrowRight Arrow

39.95238, -75.16362

Hourly Observations for May 7, 2018

Temp ( °F °C ) Dew Point ( °F °C ) Humidity (%) Winds ( mph kmh ) Pressure ( in mb ) Visibility ( mi km ) Precip ( " mm )
12:54 am 00:54 Cloudy 58 14.4 53 11.7 84 84 NNW 10 17 29.94 1014 10 16 0.00 0.00
1:54 am 01:54 Cloudy 58 14.4 53 11.7 84 84 N 8 13 29.94 1014 10 16 0.00 0.00
2:54 am 02:54 Cloudy 58 14.4 51 10.6 78 78 N 12 19 29.96 1014 10 16 0.00 0.00
3:54 am 03:54 Cloudy 56 13.3 51 10.6 84 84 Calm 29.96 1015 10 16 0.00 0.00
4:54 am 04:54 Mostly Cloudy 57 13.9 50 10 78 78 Calm 29.98 1015 10 16 0.00 0.00
5:54 am 05:54 Partly Cloudy 55 12.8 51 10.6 87 87 N 8 13 30.00 1016 10 16 0.00 0.00
6:54 am 06:54 Mostly Cloudy 55 12.8 51 10.6 87 87 N 7 11 30.03 1017 10 16 0.00 0.00
7:07 am 07:07 Cloudy 56 13.3 51 10.6 84 84 N 9 15 30.03 1017 10 16 0.00 0.00
7:30 am 07:30 Mostly Cloudy 56 13.3 50 10 81 81 N 10 17 30.06 1018 10 16 0.00 0.00
7:54 am 07:54 Mostly Cloudy 56 13.3 50 10 81 81 N 10 17 30.05 1018 10 16 0.00 0.00
8:54 am 08:54 Mostly Cloudy 60 15.6 51 10.6 72 72 NE 7 11 30.07 1018 10 16 0.00 0.00
9:54 am 09:54 Mostly Cloudy 63 17.2 51 10.6 65 65 ENE 7 11 30.07 1018 10 16 0.00 0.00
10:54 am 10:54 Mostly Cloudy 65 18.3 52 11.1 63 63 VRB 6 9 30.08 1019 10 16 0.00 0.00
11:54 am 11:54 Partly Cloudy 69 20.6 52 11.1 55 55 ENE 8 13 30.07 1018 10 16 0.00 0.00
12:54 pm 12:54 Partly Cloudy 71 21.7 51 10.6 49 49 E 10 17 30.06 1018 10 16 0.00 0.00
1:54 pm 13:54 Partly Cloudy 73 22.8 51 10.6 46 46 E 9 15 30.06 1018 10 16 0.00 0.00
2:54 pm 14:54 Partly Cloudy 74 23.3 52 11.1 46 46 E 7 11 30.06 1018 10 16 0.00 0.00
3:54 pm 15:54 Partly Cloudy 75 23.9 51 10.6 43 43 E 9 15 30.05 1018 10 16 0.00 0.00
4:54 pm 16:54 Partly Cloudy 75 23.9 49 9.4 40 40 ENE 3 6 30.06 1018 10 16 0.00 0.00
5:54 pm 17:54 Partly Cloudy 74 23.3 50 10 43 43 NNW 10 17 30.06 1018 10 16 0.00 0.00
6:54 pm 18:54 Partly Cloudy 72 22.2 50 10 46 46 N 7 11 30.07 1018 10 16 0.00 0.00
7:54 pm 19:54 Mostly Cloudy 70 21.1 51 10.6 51 51 SSE 9 15 30.10 1019 10 16 0.00 0.00
8:54 pm 20:54 Mostly Cloudy 67 19.4 49 9.4 53 53 SE 7 11 30.13 1020 10 16 0.00 0.00
9:54 pm 21:54 Mostly Cloudy 63 17.2 48 8.9 58 58 SE 7 11 30.15 1021 10 16 0.00 0.00
10:54 pm 22:54 Partly Cloudy 59 15 49 9.4 69 69 ESE 6 9 30.17 1022 10 16 0.00 0.00
11:54 pm 23:54 Mostly Clear 57 13.9 49 9.4 74 74 ESE 6 9 30.19 1022 10 16 0.00 0.00

Powered by AerisWeather